KF5CFW Weather Reports


time (UTC)temp
F
wind
direction
speed
knots
gust
knots
rain 1hr
in
rain 24hr
in
rain mn
in
humidity
%
barometer
mb
20260906011534 92 155 0.0 1.7 0.00 0.00 0.00 53 1009.3
20260906010034 93 139 0.0 2.6 0.00 0.00 0.00 50 1009.2
20260906004534 95 152 0.0 0.9 0.00 0.00 0.00 43 1008.9
20260906003033 96 131 0.0 0.9 0.00 0.00 0.00 41 1008.8
20260906001529 96 143 0.0 0.9 0.00 0.00 0.00 40 1008.8
20260906000025 97 147 0.0 0.0 0.00 0.00 0.00 39 1008.6
20260905234522 99 146 0.0 0.0 0.00 0.00 0.00 38 1008.6
20260905233021 100 146 0.0 0.9 0.00 0.00 0.00 36 1008.5
20260905231517 101 21 0.0 0.9 0.00 0.00 0.00 35 1008.6
20260905230013 103 165 0.0 0.9 0.00 0.00 0.00 33 1008.4
20260905224516 103 120 0.0 0.0 0.00 0.00 0.00 34 1008.5
20260905223004 104 148 0.0 0.0 0.00 0.00 0.00 33 1008.5
20260905221600 103 141 0.0 0.9 0.00 0.00 0.00 34 1008.6
20260905220055 103 348 0.0 0.9 0.00 0.00 0.00 34 1008.6
20260905214554 102 136 0.0 0.9 0.00 0.00 0.00 36 1008.9
20260905213049 100 146 0.0 0.9 0.00 0.00 0.00 37 1009.1
20260905211542 100 23 0.0 0.0 0.00 0.00 0.00 37 1009.3
20260905210037 101 1 0.0 0.9 0.00 0.00 0.00 37 1009.4
20260905204533 101 105 0.0 0.9 0.00 0.00 0.00 37 1009.6
20260905203031 103 350 0.0 0.9 0.00 0.00 0.00 35 1009.7
20260905201527 103 130 0.0 1.7 0.00 0.00 0.00 35 1009.9
20260905200020 102 271 0.0 0.9 0.00 0.00 0.00 35 1010.1
20260905194516 101 65 0.0 0.9 0.00 0.00 0.00 36 1010.5
20260905193013 99 252 0.0 0.9 0.00 0.00 0.00 40 1010.7
20260905191508 99 176 0.0 0.9 0.00 0.00 0.00 38 1011.0
20260905190002 102 46 0.0 0.9 0.00 0.00 0.00 36 1011.2
20260905184619 101 133 0.0 1.7 0.00 0.00 0.00 38 1011.5
20260905183054 102 184 0.0 1.7 0.00 0.00 0.00 38 1011.6
20260905181550 102 232 0.0 1.7 0.00 0.00 0.00 38 1011.9
20260905180044 101 193 0.0 0.9 0.00 0.00 0.00 39 1012.3
20260905174546 99 61 0.0 0.9 0.00 0.00 0.00 41 1012.4
20260905173038 98 48 0.0 0.9 0.00 0.00 0.00 43 1012.5
20260905171531 98 330 0.0 1.7 0.00 0.00 0.00 43 1012.7
20260905170027 97 86 0.0 0.9 0.00 0.00 0.00 44 1012.8
20260905164523 97 140 0.0 0.9 0.00 0.00 0.00 47 1013.0
20260905163024 94 73 0.0 0.9 0.00 0.00 0.00 49 1013.1
20260905161513 94 233 0.0 0.9 0.00 0.00 0.00 50 1013.0
20260905160009 92 151 0.0 0.9 0.00 0.00 0.00 53 1013.0
20260905154505 91 249 0.0 0.9 0.00 0.00 0.00 55 1013.0
20260905153101 90 253 0.0 0.9 0.00 0.00 0.00 56 1013.1
20260905153001 90 252 0.0 0.9 0.00 0.00 0.00 56 1013.2
20260905151556 89 233 0.0 0.9 0.00 0.00 0.00 57 1013.0
20260905150052 87 239 0.0 0.9 0.00 0.00 0.00 57 1012.9
20260905144548 87 222 0.0 0.9 0.00 0.00 0.00 57 1013.0
20260905143043 86 217 0.0 0.9 0.00 0.00 0.00 52 1013.1
20260905141544 84 226 0.0 0.9 0.00 0.00 0.00 44 1013.1
20260905140034 83 226 0.0 0.9 0.00 0.00 0.00 35 1013.0
20260905134533 82 253 0.0 0.9 0.00 0.00 0.00 27 1012.9
20260905133025 80 253 0.0 0.9 0.00 0.00 0.00 10 1012.8
20260905131540 79 249 0.0 0.0 0.00 0.00 0.00 1 1012.7
20260905130017 79 249 0.0 0.9 0.00 0.00 0.00 1 1012.4
20260905124533 78 249 0.0 0.0 0.00 0.00 0.00 1 1012.2
20260905123013 78 248 0.0 0.0 0.00 0.00 0.00 1 1012.1
20260905121518 77 249 0.0 0.0 0.00 0.00 0.00 1 1012.2
20260905120004 77 249 0.0 0.0 0.00 0.00 0.00 1 1012.2
20260905114600 77 249 0.0 0.0 0.00 0.00 0.00 1 1012.1
20260905113101 77 248 0.0 0.0 0.00 0.00 0.00 1 1012.1
20260905111556 78 249 0.0 0.0 0.00 0.00 0.00 1 1012.1
20260905110046 78 249 0.0 0.0 0.00 0.00 0.00 8 1012.0
20260905104545 78 249 0.0 0.0 0.00 0.00 0.00 15 1011.9
20260905103042 79 249 0.0 0.0 0.00 0.00 0.00 16 1012.1
20260905101542 79 249 0.0 0.0 0.00 0.00 0.00 18 1012.0
20260905100038 80 249 0.0 0.0 0.00 0.00 0.00 21 1011.8
20260905094536 80 249 0.0 0.0 0.00 0.00 0.00 26 1011.9
20260905093033 80 249 0.0 0.0 0.00 0.00 0.00 30 1011.7
20260905091536 81 249 0.0 0.0 0.00 0.00 0.00 32 1011.7
20260905090034 81 249 0.0 0.0 0.00 0.00 0.00 35 1011.7
20260905084553 81 249 0.0 0.0 0.00 0.00 0.00 38 1011.5
20260905083025 82 249 0.0 0.0 0.00 0.00 0.00 41 1011.4
20260905081524 82 249 0.0 0.0 0.00 0.00 0.00 44 1011.4
20260905080022 82 249 0.0 0.9 0.00 0.00 0.00 46 1011.4
20260905074521 83 249 0.0 0.0 0.00 0.00 0.00 49 1011.4
20260905073019 83 249 0.0 0.0 0.00 0.00 0.00 52 1011.5
20260905071519 83 249 0.0 0.0 0.00 0.00 0.00 53 1011.5
20260905070014 84 266 0.0 0.0 0.00 0.00 0.00 55 1011.7
20260905064512 84 266 0.0 0.9 0.00 0.00 0.00 56 1011.8
20260905063010 85 160 0.0 0.9 0.00 0.00 0.00 57 1011.8
20260905061508 85 165 0.0 0.9 0.00 0.00 0.00 58 1011.9
20260905060007 85 148 0.0 0.9 0.00 0.00 0.00 58 1011.9
20260905054505 86 153 0.0 0.9 0.00 0.00 0.00 58 1011.7
20260905053002 86 154 0.0 0.9 0.00 0.00 0.00 58 1011.6
20260905051501 87 165 0.0 0.9 0.00 0.00 0.00 58 1011.5
20260905050059 87 238 0.0 0.9 0.00 0.00 0.00 58 1011.4
20260905044555 87 142 0.0 0.9 0.00 0.00 0.00 57 1011.4
20260905043049 88 127 0.0 0.9 0.00 0.00 0.00 57 1011.5
20260905041545 88 153 0.0 0.9 0.00 0.00 0.00 57 1011.3
20260905040043 89 151 0.0 0.9 0.00 0.00 0.00 56 1011.5
20260905034545 89 166 0.0 1.7 0.00 0.00 0.00 55 1011.5
20260905033032 89 151 0.0 0.9 0.00 0.00 0.00 55 1011.5
20260905031533 90 159 0.0 0.9 0.00 0.00 0.00 54 1011.3
20260905030030 90 152 0.0 0.9 0.00 0.00 0.00 53 1011.3
20260905024519 91 136 0.0 0.9 0.00 0.00 0.00 51 1011.0
20260905023026 91 156 0.0 0.9 0.00 0.00 0.00 49 1010.8
20260905021512 91 134 0.0 0.9 0.00 0.00 0.00 48 1010.5
20260905020006 92 132 0.0 0.9 0.00 0.00 0.00 47 1010.3
20260905014501 92 151 0.0 0.0 0.00 0.00 0.00 46 1010.1
20260905013056 93 154 0.0 0.9 0.00 0.00 0.00 45 1009.9